Theta_e
279 279 279 279 280 280 281 283 285 287 289 292 294 296 297 298 298 298 297 297 296 295 294 293 294 295 295 297 299 303 310 315 315 315 315 315 316 316 316 315 315 314 314 313 312 312 312 312 311 310 309 307 307 307 307 308 308 307 308 308 308 309 308 308 308 302 300 301 300 299 300 299 297 295 295 295 296 297 298 299 299 298 298 299 302
278 278 278 279 279 279 280 282 284 286 286 288 290 294 297 297 297 298 298 297 296 295 294 293 293 294 295 296 298 301 306 313 315 314 314 315 315 315 315 315 314 314 314 313 312 312 312 311 311 310 309 308 307 307 307 307 307 306 307 307 307 308 308 307 306 300 297 298 299 298 298 298 297 296 295 296 297 298 299 299 299 299 299 300 303
277 277 277 278 278 279 279 281 282 283 284 285 287 291 294 296 297 297 298 298 297 295 294 293 293 294 294 295 297 299 303 310 314 314 313 314 314 314 314 314 314 313 313 313 313 312 312 311 311 311 310 308 307 307 307 306 306 305 306 306 306 307 307 307 305 300 296 296 296 297 296 296 297 296 296 297 297 298 299 299 300 300 300 300 302
276 276 276 277 277 278 278 279 280 281 282 283 285 287 289 292 295 297 297 297 297 295 294 293 293 293 294 294 296 298 301 307 313 314 313 314 314 314 314 314 314 313 313 313 313 312 312 311 311 311 310 308 307 306 306 306 305 305 305 305 305 306 306 306 305 301 297 295 295 295 296 295 296 296 296 297 298 298 299 299 299 300 299 300 300
275 275 276 276 277 277 278 279 280 280 281 281 282 283 284 286 288 293 296 297 296 296 294 293 293 293 293 294 294 296 299 303 310 313 313 313 313 313 314 314 313 313 313 313 313 312 312 312 311 311 310 308 307 306 305 306 305 304 304 304 304 304 305 305 304 301 298 295 294 294 295 294 295 296 297 297 298 298 298 298 298 298 297 297 297
274 274 275 276 276 277 278 278 279 279 280 280 281 281 282 282 283 287 292 296 296 295 294 293 293 292 293 293 293 295 298 301 307 312 312 312 313 313 313 313 313 313 313 313 313 312 312 312 312 311 310 309 307 306 305 305 305 304 303 303 303 303 303 303 303 301 298 295 294 294 294 294 294 295 296 297 297 297 297 297 297 297 296 295 294
274 274 274 275 275 276 277 278 278 279 279 280 280 281 281 282 282 284 288 293 296 295 294 293 293 292 292 293 293 294 297 299 304 310 312 312 312 313 312 313 313 313 313 313 312 312 312 312 312 311 311 310 308 307 305 304 304 304 303 303 302 302 302 302 301 299 297 295 294 294 294 294 294 294 295 296 296 296 296 295 295 295 296 295 294
273 273 274 274 275 275 276 277 278 278 279 279 280 280 280 281 282 282 285 289 293 294 294 293 293 292 292 292 293 293 295 298 302 308 312 311 312 312 312 312 312 313 313 312 312 312 312 311 312 311 311 310 309 307 306 305 303 303 303 303 302 302 301 300 299 298 297 295 294 294 294 294 293 294 294 294 294 294 295 295 294 294 295 295 294
273 273 273 274 274 275 275 276 276 277 278 279 279 280 280 280 281 281 283 286 289 292 293 293 292 292 292 292 292 293 294 296 300 306 311 311 311 312 311 311 311 312 312 312 312 312 312 311 311 311 310 309 308 308 307 306 304 303 303 303 302 301 300 299 298 297 296 295 295 294 294 293 293 293 293 293 294 294 294 294 293 293 293 294 294
273 273 273 273 273 274 274 275 275 276 277 278 279 279 280 280 280 281 282 284 286 288 290 291 292 292 292 292 292 292 294 296 299 304 310 311 310 311 311 310 311 311 311 311 311 311 311 311 311 310 310 309 308 308 307 306 305 304 303 303 302 301 300 299 298 297 296 295 295 294 294 293 293 293 293 294 294 294 293 293 293 292 292 292 292
273 273 273 273 273 273 273 274 274 275 276 277 278 279 279 280 280 280 281 282 284 285 287 289 291 291 291 291 292 292 293 295 298 303 309 311 310 311 310 310 310 310 310 311 311 310 311 311 311 310 309 308 308 308 307 306 305 305 304 303 303 302 301 299 298 297 296 296 295 295 294 294 293 293 294 294 294 294 293 293 293 292 292 292 291
272 272 272 273 273 273 273 273 274 275 276 277 278 279 279 280 280 280 281 282 283 284 286 288 290 291 291 292 292 292 293 295 297 301 307 310 310 311 310 309 309 310 310 310 310 310 310 310 310 310 309 308 308 307 307 306 305 305 304 303 303 303 302 300 299 297 297 296 295 295 295 294 294 294 294 294 294 294 293 293 293 292 292 292 291
272 272 272 272 272 273 273 273 273 274 275 276 278 279 279 280 280 280 280 281 283 284 286 288 289 290 291 292 292 292 293 294 296 301 306 309 310 311 310 309 309 309 309 310 309 309 309 309 309 309 308 308 308 307 306 306 305 305 304 303 302 301 301 301 300 298 297 297 296 295 295 295 294 294 295 295 294 293 293 293 293 292 292 292 292
272 272 272 272 272 272 272 273 273 274 274 276 278 279 279 280 280 280 280 281 282 284 286 287 289 290 291 291 292 292 293 294 296 300 306 309 310 311 310 309 309 309 309 309 309 308 308 308 309 308 308 307 307 307 306 306 305 304 303 303 302 301 300 300 300 299 298 297 297 296 296 296 296 295 295 296 295 294 294 293 293 293 292 293 292
271 271 271 271 271 272 272 272 273 273 273 274 276 279 280 280 280 280 280 281 283 285 286 287 289 290 291 291 292 293 293 294 296 301 306 308 309 310 310 309 308 308 308 309 309 308 308 308 308 307 307 306 305 306 305 305 304 303 302 302 301 301 300 300 300 299 298 297 297 297 296 297 297 297 295 295 295 295 295 294 293 293 292 292 292
270 270 270 270 271 271 271 271 272 272 272 273 274 277 279 280 280 280 280 281 284 286 287 288 290 290 291 292 292 293 294 294 296 301 306 307 308 309 309 309 308 308 308 308 308 308 308 307 307 307 306 305 304 305 304 304 303 302 302 301 300 300 300 300 300 300 299 298 298 298 297 297 298 297 295 295 295 295 294 293 293 292 292 291 291
270 270 269 270 270 270 270 270 271 271 271 272 272 275 278 280 280 280 281 282 285 287 288 289 290 291 291 293 293 294 294 294 297 302 306 307 308 308 308 308 307 307 307 307 307 307 307 307 307 307 306 305 304 304 304 303 302 301 301 300 299 299 299 299 299 299 299 298 298 298 298 297 297 296 296 295 295 294 293 293 292 292 292 291 290
269 269 269 269 269 269 269 270 270 270 271 271 272 273 276 279 279 280 281 283 286 289 290 290 291 292 293 294 294 294 294 295 298 303 306 307 307 307 307 307 306 306 306 306 306 306 306 306 307 306 305 305 304 305 304 303 302 301 300 299 298 298 298 298 298 298 298 298 298 298 298 298 297 297 297 296 295 294 294 294 293 292 292 291 290
268 268 268 268 268 268 269 269 269 270 270 271 271 272 275 278 280 281 282 284 286 289 291 292 293 293 294 294 294 295 295 296 300 304 306 306 307 306 306 306 305 305 305 304 305 305 305 305 306 306 305 304 304 304 304 302 301 300 300 299 297 297 298 298 298 297 297 298 298 298 298 298 298 297 297 296 295 294 295 295 294 292 292 292 291
267 267 267 267 268 268 268 268 269 269 270 270 271 272 274 278 280 281 282 283 286 290 293 293 294 294 294 294 295 296 296 298 301 305 306 306 306 306 306 306 304 304 304 304 303 304 303 303 304 305 305 304 303 303 303 302 302 301 300 299 298 297 298 298 297 297 297 297 297 298 298 298 298 297 297 296 295 294 295 295 294 293 293 292 291
266 266 267 267 267 267 268 268 269 269 270 270 271 272 274 278 281 282 282 284 288 291 293 293 294 294 294 295 296 297 297 299 302 304 305 306 306 306 306 306 305 304 304 303 303 303 302 302 302 303 303 303 303 302 302 302 302 301 300 300 300 300 299 298 298 297 297 297 297 297 297 297 297 297 297 296 295 295 295 295 295 295 294 294 292
265 266 266 266 267 267 267 268 269 269 270 271 272 273 276 280 283 283 284 287 290 292 292 292 293 294 294 295 296 298 299 300 302 304 305 306 306 306 306 306 305 305 303 303 303 302 302 302 302 302 303 303 302 302 301 301 301 299 299 301 301 301 300 299 298 297 296 296 296 296 295 296 296 296 296 295 295 295 295 294 294 295 296 295 294
265 265 265 266 266 267 268 269 269 270 271 272 274 276 280 283 284 285 286 288 290 291 291 292 293 294 294 295 297 299 300 301 302 303 304 305 306 306 306 306 306 305 304 303 303 303 302 302 302 302 302 302 302 301 301 300 300 299 299 300 300 300 300 298 297 296 296 296 295 295 294 295 295 295 295 295 295 295 295 295 295 295 295 294 293
264 264 265 265 266 267 269 270 271 272 273 274 276 280 283 285 286 286 287 288 289 291 292 293 294 294 295 296 298 299 300 300 302 303 303 304 305 306 306 306 306 306 305 304 303 303 302 302 302 302 302 302 302 301 300 300 299 299 299 299 299 298 297 296 296 295 295 295 295 294 294 294 294 294 294 295 295 296 296 295 294 294 294 293 293
263 264 265 266 267 268 270 271 273 275 276 277 279 283 286 287 287 288 288 289 290 292 292 293 294 295 296 296 298 299 300 300 301 302 303 304 304 305 306 306 306 306 305 305 304 304 303 303 303 303 303 302 302 301 300 299 299 298 298 298 298 297 296 295 295 295 294 294 294 294 294 294 294 294 295 295 295 295 294 293 292 292 292 292 292
263 264 265 266 268 269 271 273 275 277 279 280 282 285 287 288 288 289 290 290 291 292 292 293 294 295 296 297 298 299 300 300 301 301 302 303 303 304 305 306 306 306 306 305 305 305 304 303 303 303 303 302 301 300 299 299 299 298 297 297 297 296 296 296 295 294 294 294 294 294 294 293 294 294 294 294 294 293 292 291 291 291 291 291 291
263 264 265 267 269 270 271 273 274 276 279 282 284 286 288 288 289 290 290 291 291 292 293 294 294 295 296 297 298 299 299 300 300 300 300 301 302 303 304 305 305 305 305 305 305 305 304 304 303 303 303 302 302 301 300 299 298 297 296 296 296 296 296 296 296 295 295 294 294 294 294 294 293 293 293 293 293 292 292 291 291 290 290 290 290
263 264 265 267 269 270 271 272 273 274 276 279 283 286 288 289 290 290 291 291 292 292 293 294 295 295 296 297 298 298 298 299 299 300 300 300 301 301 302 303 303 303 304 304 304 304 304 303 302 302 301 300 300 299 299 299 298 297 296 296 296 296 296 296 296 296 295 295 295 294 294 294 293 293 292 292 292 292 291 291 291 290 289 289 289
263 264 266 268 269 269 270 271 272 273 274 276 279 282 285 288 290 291 291 292 292 293 293 294 295 296 296 297 297 298 298 298 299 300 300 300 301 301 302 302 302 302 302 303 303 302 302 301 300 299 298 298 298 298 298 298 298 297 296 296 296 296 296 296 296 295 295 295 295 294 294 294 293 292 292 292 291 291 291 290 290 290 289 289 289
263 265 266 267 268 269 269 270 270 271 272 274 276 278 281 285 289 290 291 292 292 293 293 294 295 296 296 297 298 298 298 299 299 300 300 300 301 302 302 302 302 302 302 302 302 301 300 299 299 298 298 298 297 297 298 297 297 297 297 296 296 296 296 296 296 296 296 296 295 295 295 294 293 292 292 291 291 291 290 290 290 289 288 288 289
263 265 266 267 268 268 268 269 269 270 271 272 274 276 279 283 286 288 291 292 292 292 293 293 294 295 296 297 298 298 299 299 300 300 300 301 301 301 302 302 302 302 302 302 301 300 299 299 298 298 298 298 298 297 297 297 297 297 297 296 296 297 296 296 296 296 296 296 296 295 295 294 293 292 292 292 291 290 290 289 289 289 288 288 289
263 264 265 266 267 267 268 268 268 269 270 271 272 275 278 281 283 285 288 292 293 293 293 294 294 295 295 296 297 298 299 299 299 300 300 301 301 301 301 302 302 301 301 301 300 299 299 299 298 298 298 298 298 298 297 297 297 297 297 297 296 296 296 296 296 296 296 296 296 295 295 294 293 292 292 292 291 290 289 289 289 289 288 288 289
263 264 265 266 267 267 267 267 267 268 269 270 271 273 275 277 279 280 283 286 289 290 290 289 290 292 294 295 296 297 298 299 299 300 300 300 301 301 301 301 302 301 301 300 299 299 299 299 299 298 298 298 298 298 298 298 297 297 297 297 297 296 296 296 296 296 296 296 296 295 295 294 294 292 292 292 291 289 289 289 288 288 288 288 288
263 264 265 266 266 266 266 266 267 267 268 268 269 271 272 273 274 275 277 278 280 281 282 282 283 285 289 293 295 296 298 299 299 299 300 300 300 300 300 300 301 301 300 300 299 299 299 299 299 298 298 298 298 298 297 297 297 297 297 297 297 297 296 296 296 295 295 295 296 295 295 294 293 292 291 291 291 289 288 288 288 288 288 288 288
262 263 264 265 265 265 265 265 266 266 267 267 268 268 269 270 270 271 272 273 274 274 275 276 276 279 282 286 290 294 297 298 298 298 299 299 300 299 299 298 298 298 299 299 300 299 299 299 299 299 298 298 298 298 297 297 297 297 297 297 297 297 296 296 295 295 295 295 295 295 295 294 293 292 292 291 290 289 288 289 288 288 288 288 288
262 263 264 265 265 265 264 265 265 265 266 265 266 266 267 267 268 268 268 269 270 271 271 271 272 275 278 280 282 286 289 290 290 291 293 295 297 298 298 297 297 297 297 298 299 299 299 299 299 299 298 298 298 297 297 297 297 297 297 297 297 296 296 295 295 295 295 295 295 295 294 293 293 292 292 291 290 289 289 289 288 288 288 288 288
261 262 263 264 264 264 264 264 264 264 264 264 264 265 265 265 265 266 266 266 267 268 269 269 270 271 273 273 273 276 280 283 285 285 286 289 291 291 292 294 296 297 297 298 298 298 298 298 298 298 298 298 297 297 297 297 296 297 297 296 296 296 295 295 295 295 294 295 294 294 294 293 293 292 292 291 291 289 289 289 288 287 287 287 288
260 261 262 263 264 263 263 263 263 263 263 263 263 263 264 264 264 264 264 264 264 265 266 268 268 268 268 267 268 270 274 278 278 277 276 277 277 277 278 282 285 288 291 294 296 297 298 297 298 297 297 297 297 296 296 296 296 296 296 296 296 295 295 295 294 294 294 294 294 294 293 293 293 292 292 291 291 289 289 288 288 287 287 287 287
260 260 261 262 263 263 262 262 262 262 262 262 262 262 262 263 263 263 262 263 263 262 263 265 266 267 266 265 264 266 268 268 267 266 266 266 267 268 270 272 274 275 279 283 287 290 293 294 295 296 296 296 296 296 295 295 295 295 295 295 295 294 294 294 294 293 293 293 293 293 293 292 292 291 291 291 290 289 288 288 288 287 287 286 286
259 259 260 261 261 262 262 262 262 262 262 262 262 262 262 262 261 261 261 261 261 261 261 262 263 265 266 265 263 263 263 262 262 262 263 263 263 264 266 267 268 269 271 273 276 279 282 285 288 290 292 293 294 295 295 294 294 294 294 294 294 294 293 293 293 293 293 293 293 293 292 292 291 291 290 290 290 290 288 288 288 288 287 286 286
258 259 259 260 260 260 261 261 261 261 261 261 261 261 261 261 261 261 261 260 260 260 260 260 261 263 265 265 263 262 261 261 261 261 261 261 262 263 264 265 266 266 267 269 271 273 275 278 280 282 285 287 290 292 293 293 294 294 293 293 293 293 293 293 292 292 292 292 292 292 291 291 291 290 289 289 290 289 288 287 287 287 287 286 286
258 258 258 258 259 259 259 260 260 260 260 260 260 260 260 260 260 260 260 260 260 260 260 259 259 260 262 263 263 261 260 259 260 259 260 260 261 262 262 263 264 265 265 267 268 270 271 273 274 276 278 281 283 286 288 290 291 292 292 293 292 292 292 292 292 291 291 291 291 291 291 290 290 289 289 289 289 288 287 287 286 286 286 285 285
257 257 257 257 257 258 258 258 259 259 259 259 259 259 259 259 259 259 259 259 259 259 259 259 258 258 259 260 260 259 259 259 259 259 259 259 259 260 261 261 262 263 264 265 266 268 269 270 271 272 273 275 277 279 282 284 286 289 290 291 291 291 291 291 291 290 290 290 290 290 289 289 289 288 287 287 287 287 286 286 285 285 285 284 284
256 257 257 257 257 257 257 257 258 258 258 258 258 258 258 258 258 258 258 258 258 258 258 258 258 258 258 258 258 258 258 258 258 258 258 258 259 259 260 260 261 262 263 264 265 266 267 268 269 269 271 272 273 275 277 279 281 283 285 286 287 287 288 288 289 289 289 289 288 288 288 287 287 286 286 285 285 285 284 284 284 284 283 283 283
256 256 256 256 256 256 256 256 257 257 257 257 257 257 257 257 257 257 257 257 257 257 257 257 257 257 257 257 257 257 257 257 257 257 257 258 258 259 260 260 261 261 262 263 264 265 266 266 267 268 269 270 271 272 273 274 276 277 279 280 281 281 282 284 285 287 287 287 287 286 286 285 285 284 284 283 283 283 283 283 282 282 282 282 282
255 255 255 255 255 255 255 255 256 256 256 256 256 256 256 256 256 256 256 256 256 256 256 256 256 256 256 256 256 256 256 256 256 256 256 257 257 258 259 261 261 262 262 263 263 264 265 265 266 267 267 268 269 270 271 272 273 275 276 277 278 278 279 281 283 284 285 285 285 285 284 284 283 283 282 282 282 282 282 282 281 281 281 281 281
255 255 255 255 255 255 255 255 255 255 255 256 256 256 255 255 255 255 255 255 255 255 255 255 256 256 256 255 255 255 255 255 255 255 256 256 257 258 259 260 261 262 262 263 263 263 263 264 265 266 266 267 267 268 269 270 271 272 274 275 276 277 278 280 281 282 282 283 283 283 282 282 281 281 281 281 281 281 281 281 280 280 280 280 280
255 255 255 255 254 254 254 254 254 254 255 255 255 255 255 255 255 254 255 255 254 254 254 254 255 255 255 255 255 255 255 255 255 255 256 256 257 257 258 259 260 261 262 262 262 263 263 263 264 265 265 266 266 267 268 268 269 270 271 271 273 274 276 278 279 279 280 280 281 281 281 280 280 280 280 279 279 279 279 279 279 279 279 279 279
255 254 255 254 254 254 254 254 254 254 254 254 254 254 255 254 254 254 254 254 254 254 254 254 254 254 254 254 254 254 255 255 255 255 256 257 257 258 258 258 259 260 260 261 261 262 262 263 264 264 264 265 265 266 267 267 267 268 268 270 271 273 274 275 276 276 277 278 278 278 278 278 278 278 278 278 277 277 277 277 277 277 277 277 277
255 255 254 254 254 254 254 254 253 253 254 254 254 254 254 254 254 254 254 254 253 253 253 253 253 253 253 254 254 254 255 255 255 255 256 257 257 258 258 259 259 259 259 260 260 261 262 263 263 264 264 264 265 265 266 266 267 267 267 268 270 271 272 273 274 274 275 275 275 275 276 276 275 275 275 275 275 275 275 275 275 275 275 275 276
256 256 255 255 255 254 254 254 253 253 253 253 253 253 253 253 253 253 254 253 253 253 253 254 254 254 254 254 254 254 255 255 255 256 256 257 257 257 258 258 258 259 259 259 260 260 261 262 262 263 263 264 264 265 265 265 266 266 266 267 268 269 270 271 272 272 273 273 273 273 273 273 273 273 273 273 273 273 273 273 273 273 273 273 274
Wind_Speed
35 37 37 36 35 36 36 38 37 35 36 38 36 34 33 30 28 28 29 29 25 19 18 21 24 25 29 31 30 33 35 38 44 43 43 43 43 44 46 47 47 46 46 46 45 45 46 45 43 42 41 40 38 35 35 36 35 36 36 36 35 33 31 26 14 8 15 26 29 28 32 34 31 31 30 28 27 28 27 25 24 25 28 28 28
36 36 37 36 35 35 35 34 33 31 33 37 38 34 31 31 31 29 29 31 28 21 17 19 23 23 26 30 30 30 33 35 43 44 42 43 43 43 44 46 47 46 45 47 47 45 46 46 44 44 43 42 40 37 36 35 34 35 36 35 34 34 32 28 20 13 13 21 28 30 32 34 33 31 32 31 32 31 28 26 25 27 29 30 31
35 36 36 36 35 35 34 33 31 30 31 33 35 35 33 32 32 31 28 27 25 22 18 18 21 22 24 29 30 29 31 33 40 47 45 44 44 42 43 45 46 46 45 47 49 48 47 46 46 46 44 42 42 41 39 38 36 36 37 36 34 34 34 32 25 20 18 20 27 31 33 34 34 33 33 33 33 32 29 28 28 29 30 31 32
34 35 36 37 36 34 34 33 31 30 29 30 32 34 36 35 31 30 29 26 23 23 21 18 20 22 23 26 29 28 29 32 36 45 46 46 46 44 44 46 46 47 48 47 48 49 49 48 47 48 47 43 42 42 41 40 39 38 37 36 35 34 34 33 29 26 24 22 24 30 33 33 33 34 36 34 32 31 30 30 30 30 31 31 31
33 34 35 36 36 35 34 32 31 30 29 28 30 33 38 41 38 33 31 27 23 22 21 19 19 22 23 25 28 28 28 31 33 42 46 46 48 46 46 47 48 48 49 49 50 51 51 51 50 49 48 45 42 42 42 41 39 38 37 35 34 34 33 32 30 30 29 26 23 26 27 27 29 33 37 37 33 30 29 31 31 31 31 31 30
34 33 34 35 36 36 35 32 31 31 30 29 28 30 34 40 42 38 35 30 24 21 21 20 20 23 25 25 27 29 28 30 33 39 46 45 47 48 46 47 48 48 49 50 52 53 53 53 53 51 50 48 44 42 42 42 40 38 37 36 34 33 33 32 30 31 31 29 28 27 25 25 28 31 35 39 39 36 32 30 30 31 32 32 30
35 34 34 34 36 36 35 34 32 31 31 30 29 29 29 33 37 36 36 33 25 22 22 21 22 24 25 25 27 29 28 30 34 37 45 45 46 47 46 47 47 47 49 51 52 53 52 52 53 53 52 51 48 45 43 42 41 40 39 38 36 34 33 32 32 32 31 29 28 29 28 27 28 29 33 36 36 36 37 34 29 29 31 33 33
36 35 34 34 35 35 34 34 33 32 32 31 31 31 30 31 33 33 34 33 27 22 22 22 23 24 25 26 27 30 29 30 34 35 43 46 45 47 46 47 47 46 48 50 51 52 51 51 52 53 53 53 51 48 46 45 42 40 40 40 38 36 34 32 32 33 32 29 28 29 29 28 27 28 30 31 29 31 38 39 34 32 32 32 33
36 36 35 34 34 35 35 34 34 34 34 34 33 33 32 31 32 32 32 33 29 24 23 23 25 26 25 26 27 29 29 30 34 35 41 46 45 46 47 47 48 46 44 46 48 50 50 50 51 52 52 52 52 50 50 49 47 45 43 42 40 38 35 33 32 32 30 28 27 27 27 26 28 31 31 34 36 36 37 35 31 31 30 28 30
36 36 36 36 35 36 36 36 36 35 34 35 34 35 34 32 32 32 31 32 32 30 28 26 26 27 26 26 27 28 29 31 34 37 41 48 47 45 46 46 48 47 44 44 45 47 49 49 49 50 51 51 50 50 50 51 51 50 48 47 45 42 38 34 33 33 31 27 27 29 26 24 31 37 38 40 40 37 37 35 31 31 29 24 22
38 37 37 37 36 36 37 37 37 36 35 35 35 35 35 32 32 32 30 31 33 33 32 30 29 28 27 27 28 28 30 31 34 38 43 50 48 45 44 44 46 47 46 45 44 45 48 48 46 46 49 50 50 50 49 49 49 49 48 49 50 49 45 40 36 36 34 30 30 33 30 29 36 42 43 41 37 36 40 39 35 34 31 25 20
39 38 37 38 37 36 36 36 37 36 35 35 35 35 34 33 32 32 29 29 32 32 32 32 30 30 29 27 28 29 32 33 34 38 44 52 51 47 45 43 43 45 46 46 46 46 46 45 44 43 46 49 51 50 48 48 48 47 45 46 49 51 51 48 44 43 41 36 33 34 34 35 38 41 41 41 40 40 40 37 37 38 35 30 26
38 38 37 37 36 36 35 35 36 36 34 35 35 34 34 33 32 32 30 29 30 31 33 32 30 31 30 29 29 30 32 34 35 39 44 53 53 48 45 43 43 45 45 45 45 45 45 44 42 41 43 47 50 50 47 45 45 45 43 42 45 47 48 50 48 47 47 43 38 38 41 41 42 44 48 50 49 44 38 36 38 39 36 35 34
37 37 37 36 36 36 35 35 35 34 34 35 36 34 33 32 32 30 29 29 30 31 33 32 31 32 32 31 30 30 33 35 35 39 45 54 55 49 45 43 44 45 46 45 43 43 45 46 45 42 42 46 49 49 47 45 42 42 41 40 42 45 45 46 46 45 46 44 41 42 46 46 48 52 55 56 54 51 47 45 45 43 41 39 36
36 36 36 36 35 35 35 34 35 34 34 34 34 34 32 31 30 29 28 29 29 30 31 32 31 32 32 32 30 30 34 37 36 40 46 54 56 51 45 43 43 43 44 45 44 44 46 47 45 44 42 43 47 47 46 46 44 42 41 40 41 43 45 46 46 46 47 45 44 45 47 48 50 52 53 53 54 53 52 50 48 44 38 31 26
36 35 35 35 35 34 34 34 34 35 34 32 33 34 31 29 29 29 28 29 29 29 30 31 31 31 32 32 30 30 35 38 37 40 47 56 57 50 44 41 42 41 42 44 45 45 46 46 44 44 43 43 46 48 47 47 46 44 42 41 41 42 44 46 47 48 48 48 48 48 48 47 45 44 47 50 49 44 40 37 35 34 30 24 21
35 35 34 34 35 34 34 34 34 35 34 32 31 33 32 29 28 27 27 29 29 28 29 29 29 29 30 31 30 30 34 37 37 40 48 56 56 49 41 39 40 40 39 43 44 43 44 47 46 45 43 43 46 51 50 48 47 46 43 42 41 40 42 44 45 46 47 48 49 48 46 44 40 36 42 49 47 41 36 32 32 34 31 22 17
34 35 35 36 36 36 35 34 34 34 33 33 32 32 31 29 27 27 27 28 28 27 27 27 28 28 29 30 30 31 34 35 36 40 50 57 55 48 40 37 37 37 37 38 41 41 42 46 48 46 43 44 48 51 52 50 49 49 47 43 39 39 41 42 43 42 41 42 43 42 40 40 39 36 40 47 48 44 41 39 40 40 34 26 23
34 36 37 38 38 37 35 34 34 34 33 33 33 32 31 29 27 26 26 27 27 27 25 24 25 25 26 28 30 33 34 34 36 41 51 57 54 47 40 35 34 34 34 35 36 38 40 43 47 48 45 45 48 51 53 52 50 49 49 45 39 39 43 44 43 43 42 40 40 38 36 38 40 39 39 44 49 49 47 47 47 43 36 32 31
37 38 39 39 38 37 36 35 36 35 35 34 33 32 31 29 26 24 25 27 29 27 23 21 21 22 23 26 29 32 33 33 35 43 51 56 55 48 40 35 34 33 34 34 33 34 36 39 44 47 45 44 46 50 54 55 53 50 49 45 42 43 46 46 44 44 45 43 42 41 38 38 40 40 39 42 47 50 49 47 47 46 40 34 31
40 39 39 39 39 39 38 37 36 36 35 34 32 32 31 29 25 23 25 28 28 22 17 17 18 20 22 25 28 30 31 31 34 43 51 54 54 50 42 37 37 35 33 33 33 33 34 36 40 44 44 44 46 49 53 55 54 51 50 50 49 49 48 48 48 47 46 45 43 42 39 38 40 41 41 43 48 51 50 48 48 49 49 43 36
40 40 40 40 39 40 41 39 36 34 33 31 29 30 30 27 24 23 25 25 21 16 14 16 16 17 22 24 25 27 29 30 33 42 50 53 54 51 44 40 40 38 33 31 32 34 35 36 39 43 44 43 45 48 52 55 53 49 50 52 52 51 51 50 49 47 45 44 41 38 36 37 39 40 42 44 48 52 52 51 50 50 53 50 46
41 40 40 40 39 40 42 41 38 33 30 28 28 29 27 23 21 22 23 22 17 13 13 14 13 15 18 20 21 25 27 27 30 39 47 51 54 52 46 40 41 40 35 32 32 33 35 37 40 44 46 44 44 45 49 53 53 50 49 49 48 49 50 49 47 46 44 42 40 37 37 39 39 40 43 46 49 52 54 54 54 54 52 48 43
42 40 38 36 38 43 45 44 39 34 29 27 26 26 23 20 20 21 21 19 16 12 11 11 10 11 13 14 16 20 23 24 28 36 44 49 52 51 45 41 42 42 37 35 34 34 35 38 40 45 47 46 45 45 46 50 52 51 50 48 45 43 41 40 42 43 41 39 39 38 38 40 41 41 45 48 50 52 54 54 53 51 48 44 39
42 40 37 35 39 45 45 41 36 32 29 24 22 20 19 18 19 19 18 17 14 10 8 9 9 8 8 10 11 14 18 20 23 30 39 45 49 49 45 41 43 43 37 34 35 36 38 40 41 44 48 47 44 43 44 47 50 49 48 48 46 43 40 38 37 37 36 36 36 37 38 40 43 45 47 49 50 49 48 46 44 43 42 42 40
40 39 37 37 38 38 35 33 32 31 27 22 19 19 18 17 16 16 16 15 12 10 8 8 8 7 6 8 10 11 14 17 18 24 32 37 42 46 45 41 42 42 37 34 35 36 37 40 42 44 47 48 46 43 44 47 49 48 46 45 44 44 44 42 38 35 35 34 34 35 36 38 41 43 45 47 46 44 44 42 41 41 42 42 39
37 37 37 35 33 30 30 31 31 29 27 23 20 19 19 18 16 15 15 14 11 9 8 7 5 4 4 7 9 10 11 14 16 18 24 28 32 38 41 39 39 40 36 33 34 35 36 39 42 44 46 47 48 47 45 45 45 44 43 43 43 45 46 46 44 41 39 37 37 37 37 38 39 40 40 42 41 42 45 46 44 43 41 40 37
36 36 33 31 29 29 30 31 30 29 28 26 23 20 19 18 17 16 17 16 11 8 8 7 7 6 5 6 7 7 8 12 16 18 22 25 25 29 32 32 33 34 33 31 32 33 34 36 36 37 38 40 41 41 39 39 40 42 43 44 45 45 44 44 44 43 41 40 39 37 36 36 37 36 36 38 39 41 45 46 44 43 42 39 34
35 32 30 28 28 29 30 30 30 29 28 27 26 24 23 22 20 21 22 22 19 16 13 11 11 11 11 9 8 5 5 10 15 18 21 24 25 27 29 29 29 30 29 29 30 29 29 29 29 28 29 30 31 31 30 32 35 38 41 43 43 41 39 39 39 39 37 36 34 34 34 33 34 35 36 37 39 42 45 45 42 41 41 39 35
31 29 29 27 28 30 29 29 30 29 27 26 26 26 27 26 23 22 24 26 25 23 22 19 16 14 13 12 11 9 9 12 16 18 20 22 27 30 32 32 31 29 28 30 30 28 25 25 25 25 26 25 24 25 26 28 29 31 35 39 40 38 38 39 39 38 36 35 35 35 36 35 34 35 36 36 37 40 43 45 43 41 41 39 35
28 28 28 27 29 31 29 28 29 28 27 26 24 23 24 26 26 23 21 23 24 23 22 22 20 17 15 14 14 14 13 13 16 20 22 24 27 29 31 33 33 32 33 34 30 26 24 22 21 24 25 24 24 25 27 28 29 30 31 34 36 37 37 37 38 38 37 37 36 35 36 36 36 36 37 36 36 38 41 43 42 42 42 40 36
27 27 27 27 31 31 28 28 28 27 26 26 24 22 20 17 20 26 24 16 17 20 20 20 19 19 18 15 14 14 14 15 17 20 22 25 27 28 31 33 33 34 37 35 27 22 23 22 20 22 24 23 24 26 28 28 29 29 30 30 32 36 38 38 39 39 38 37 36 36 37 38 38 39 41 39 37 37 39 40 40 41 40 38 36
29 27 27 29 31 30 28 28 27 26 26 26 23 22 19 13 12 17 23 23 18 12 10 9 8 10 16 18 17 15 14 14 16 19 20 23 27 29 30 33 35 36 37 33 24 21 23 22 21 23 25 25 25 27 28 29 30 31 31 32 33 37 39 39 38 38 39 39 39 38 39 40 39 39 39 40 39 38 38 37 38 38 36 35 35
31 27 29 31 30 29 29 28 27 26 27 27 24 22 21 19 16 13 14 17 20 23 27 33 31 22 10 6 11 17 18 15 15 18 20 21 24 28 30 31 33 37 39 33 25 22 23 22 22 24 26 26 26 26 27 29 30 31 32 33 34 35 37 38 38 39 41 40 39 38 38 38 38 37 36 37 37 37 37 37 38 37 36 35 33
33 29 30 32 30 29 29 28 27 27 28 27 25 23 22 22 21 18 14 11 11 13 18 29 36 36 32 27 16 3 13 13 10 12 16 19 23 26 24 21 22 27 31 30 26 23 24 23 23 24 26 26 26 27 27 28 29 29 30 30 30 30 33 36 38 40 41 39 37 37 37 36 37 37 37 36 36 36 37 39 39 39 39 37 34
35 30 29 32 31 28 29 29 27 27 28 27 26 25 24 23 21 20 19 17 16 13 15 24 35 42 43 42 35 25 17 14 12 9 4 7 14 18 17 15 14 17 20 21 20 21 22 23 23 23 24 24 24 25 26 27 28 29 29 29 29 29 30 34 36 37 37 37 37 38 37 37 38 38 37 36 38 39 39 39 39 40 40 38 35
37 30 29 32 31 28 28 29 28 27 27 28 26 25 25 24 24 22 21 21 21 18 18 24 33 40 41 41 39 36 34 33 31 29 25 17 11 8 5 3 8 12 15 17 18 17 17 19 21 21 22 23 24 24 25 26 27 28 29 29 30 31 32 35 36 36 36 36 36 37 38 38 39 40 39 37 37 38 38 37 37 38 40 39 36
37 31 30 32 30 28 27 29 30 29 28 28 27 26 25 25 25 24 23 23 23 22 21 23 27 28 30 34 36 38 43 43 41 39 37 35 33 31 29 24 17 10 4 4 11 14 13 15 18 20 20 22 23 24 25 25 26 27 28 29 30 32 33 35 35 36 37 36 35 37 38 37 37 38 39 37 36 35 36 36 36 36 36 37 35
38 34 32 32 30 28 27 27 28 29 28 28 28 27 26 25 26 25 24 23 24 24 22 23 25 28 30 33 36 40 44 40 32 29 32 37 41 42 41 38 35 31 28 22 14 7 5 5 9 13 16 18 20 22 23 24 25 27 28 28 28 29 31 32 32 33 34 34 33 34 35 35 35 36 37 36 35 35 36 37 38 37 35 36 37
38 33 31 32 30 27 25 25 26 27 27 27 27 27 27 26 25 25 24 24 24 25 24 24 27 31 34 35 36 36 34 28 24 24 27 34 41 45 44 40 37 35 36 35 31 27 24 19 14 10 8 9 13 17 19 21 22 24 25 26 26 26 28 30 31 32 33 34 33 33 33 34 35 35 35 36 36 36 35 36 37 38 37 37 37
38 32 29 31 31 28 25 25 26 25 25 25 26 26 26 25 25 25 25 25 24 23 25 27 32 35 37 37 39 40 36 31 30 31 32 35 41 43 41 38 37 38 39 38 36 35 34 31 27 24 19 13 8 8 13 16 20 22 23 24 24 24 25 26 28 29 30 31 32 31 31 32 33 33 35 36 36 34 33 34 35 35 34 34 34
36 32 30 30 30 28 26 25 25 24 24 25 26 25 24 24 25 26 25 25 24 23 23 26 32 38 39 37 40 46 45 40 39 40 40 42 43 41 38 37 38 38 37 35 34 35 36 36 35 32 29 24 18 12 7 7 11 16 20 22 23 23 23 24 25 26 27 27 28 28 28 29 31 31 32 33 32 30 30 31 33 33 32 31 32
35 33 31 30 29 29 28 26 25 25 26 26 26 25 25 25 26 26 25 24 25 25 24 24 28 36 40 40 43 49 50 46 45 46 46 46 45 43 42 42 41 38 37 37 35 35 37 37 37 36 34 31 27 21 16 11 6 6 11 15 17 18 19 21 23 24 25 24 25 25 24 24 26 27 26 26 27 26 26 27 29 30 30 30 30
35 35 35 34 35 36 35 32 28 26 27 26 25 27 28 27 26 26 26 25 25 25 25 24 25 31 39 45 48 50 49 46 46 47 46 46 47 47 46 45 44 43 43 42 41 41 42 41 39 38 37 35 32 28 24 21 16 12 9 9 10 10 11 13 17 20 22 22 22 22 22 22 22 22 21 22 23 22 21 21 23 25 27 27 27
35 34 35 36 38 39 39 38 35 33 31 28 25 27 30 29 27 26 25 25 25 25 26 26 26 29 34 40 44 45 45 44 45 46 46 46 47 47 47 47 47 47 46 44 44 44 44 43 42 41 40 38 37 35 32 29 26 22 18 16 15 13 10 8 9 14 18 20 20 21 21 21 21 20 19 19 20 21 20 19 20 20 22 23 24
34 33 33 35 36 37 38 38 39 39 36 30 25 26 29 31 31 29 27 25 26 26 27 28 30 30 31 33 37 41 43 43 45 46 46 45 46 46 47 47 47 46 45 45 45 46 45 43 43 43 40 38 38 38 37 35 31 28 25 22 20 17 15 11 9 10 13 16 18 19 20 19 19 19 18 19 20 21 21 21 21 21 21 21 20
32 33 33 33 33 34 36 37 37 38 38 32 27 26 29 31 33 34 32 30 29 30 31 33 34 33 32 33 37 40 41 42 44 45 44 44 44 44 45 46 47 45 44 44 44 45 44 42 42 43 41 39 38 38 39 38 36 33 30 27 23 20 17 14 12 12 11 12 14 17 19 18 17 17 17 17 18 19 20 20 20 20 21 20 19
31 32 33 33 32 33 34 36 35 36 37 35 32 31 31 31 32 35 36 35 33 35 36 37 38 37 36 36 38 40 41 42 43 43 43 43 44 43 44 45 45 44 44 43 42 42 42 41 42 42 42 41 39 38 38 39 39 38 36 32 27 22 19 18 17 15 14 14 14 16 17 17 17 16 16 17 17 17 17 17 17 17 18 17 17
28 29 30 31 31 31 31 32 32 33 34 34 33 34 34 33 32 34 37 37 37 37 38 38 38 38 38 38 39 41 41 42 42 42 42 43 43 42 42 42 42 42 43 42 40 39 38 39 40 40 40 41 40 39 38 39 39 39 39 36 31 26 23 22 20 19 17 17 17 18 18 19 19 18 18 18 18 18 17 17 16 17 18 18 18
26 27 28 29 29 29 30 30 31 31 32 32 32 33 34 35 35 35 36 37 37 38 38 38 38 38 37 36 37 39 41 41 40 40 41 42 41 41 41 41 41 41 41 40 39 38 37 36 37 37 38 39 39 39 39 38 38 37 37 36 34 32 29 27 25 23 21 22 22 22 22 22 22 21 21 20 20 20 19 18 17 17 18 18 18
24 25 27 27 27 28 29 29 30 30 30 30 30 30 31 32 33 33 34 34 35 35 37 37 37 36 36 36 36 37 39 39 39 39 39 40 39 39 39 39 39 39 38 38 37 37 36 35 35 35 35 35 36 37 37 37 35 34 34 34 34 34 33 31 29 27 25 26 26 26 26 26 26 25 24 24 23 23 22 20 19 19 19 18 17
Wind_Direction
307 305 304 305 305 306 308 306 301 298 300 302 298 284 272 268 266 267 271 272 275 282 294 308 309 298 296 291 279 271 252 216 198 199 198 195 195 193 191 189 188 188 189 188 188 189 186 187 189 189 188 188 187 187 188 189 190 191 192 192 194 195 191 187 178 148 168 182 182 183 188 188 188 190 191 186 180 182 188 193 193 190 188 187 187
307 306 304 302 303 305 306 306 303 301 305 307 306 298 285 276 273 271 270 270 271 275 286 303 307 299 294 291 281 273 261 229 201 196 198 194 194 194 190 188 187 187 188 187 187 189 189 190 192 192 192 191 191 191 190 190 190 189 191 194 195 197 196 190 179 155 152 170 175 177 182 186 186 188 190 186 181 183 185 185 187 189 188 186 184
306 305 304 301 301 303 303 304 305 306 308 306 305 306 303 293 281 273 269 267 266 271 282 298 305 299 293 291 285 274 267 245 209 195 196 195 193 193 190 188 188 187 188 187 186 187 189 192 194 193 193 194 194 195 194 193 191 190 192 194 194 194 197 194 183 166 156 163 172 174 177 183 186 186 188 186 182 182 181 180 182 185 186 186 184
307 304 303 301 300 300 300 300 302 303 304 304 304 307 309 306 297 283 273 265 263 272 282 293 303 299 291 292 289 275 267 255 221 196 193 194 193 192 191 190 190 189 189 189 187 187 190 192 194 193 193 194 195 196 196 195 193 192 192 193 194 193 193 195 191 176 162 160 172 177 176 180 183 181 181 180 179 180 179 177 179 181 182 184 185
306 304 302 301 300 299 298 298 298 299 301 302 302 303 303 304 303 298 287 271 261 270 280 287 297 298 292 291 292 280 268 262 236 204 192 193 193 192 192 191 191 191 191 190 189 189 190 192 193 193 192 194 195 195 196 195 193 193 193 191 191 190 190 192 192 182 170 162 165 173 175 174 173 175 176 174 170 171 174 174 175 177 178 180 183
306 304 302 301 300 298 297 297 296 298 300 300 300 300 300 299 300 301 297 284 267 264 276 284 291 296 294 292 294 286 269 265 250 215 195 192 193 192 193 191 191 192 191 191 191 191 192 192 192 192 192 193 195 195 195 195 193 193 192 190 188 187 186 189 188 181 172 164 161 166 171 171 167 169 174 173 168 166 165 166 171 176 177 177 178
306 304 301 299 297 296 296 296 296 296 297 296 297 296 297 298 297 296 297 294 280 267 273 281 287 291 292 291 294 291 274 265 259 227 198 192 193 192 192 191 190 191 192 192 192 192 193 193 191 192 194 194 195 195 193 193 193 193 191 189 188 185 184 185 183 176 169 164 163 165 168 170 167 166 170 172 169 166 163 161 165 173 178 178 176
307 304 302 299 296 295 295 295 295 295 294 293 292 292 292 293 293 292 292 291 286 278 275 279 284 286 288 288 291 293 282 267 262 237 203 192 193 192 191 191 190 191 192 192 192 193 194 193 192 193 195 196 195 194 193 192 192 192 192 190 188 186 183 181 177 172 168 164 166 168 167 165 163 162 164 164 164 170 173 170 168 171 175 178 179
306 305 302 299 298 297 296 295 294 293 292 290 288 289 289 288 289 290 288 284 282 283 281 280 282 281 283 286 286 290 286 269 261 244 209 193 193 193 191 191 190 191 192 192 192 193 193 194 195 195 196 196 196 195 195 194 193 192 192 190 188 185 182 179 174 170 168 166 167 169 166 163 162 159 163 171 175 178 178 173 169 169 170 172 178
304 303 301 299 299 298 297 296 295 292 290 288 286 285 286 285 285 285 283 278 275 278 279 278 279 277 278 282 281 284 285 270 259 248 217 196 193 193 191 191 191 190 190 191 192 193 193 195 196 196 196 196 195 196 196 196 195 194 192 191 189 185 181 178 175 173 172 170 170 169 167 169 170 168 173 182 182 175 172 172 169 166 165 165 173
302 300 299 298 298 298 297 295 295 292 288 286 283 282 282 281 280 280 279 277 273 272 271 270 273 273 272 277 277 278 282 273 261 251 225 200 192 193 192 191 191 190 190 191 192 193 193 194 195 195 196 195 195 196 197 198 198 196 195 194 192 191 186 181 178 177 177 176 175 175 174 174 177 178 179 180 178 175 175 175 170 166 167 168 171
301 298 297 297 297 297 296 294 294 293 290 285 280 280 279 277 277 277 275 274 272 269 265 262 266 269 268 270 271 272 279 276 266 255 230 204 193 192 192 191 190 191 192 192 192 192 192 193 193 194 196 195 195 196 197 198 199 197 197 197 196 196 193 189 185 182 181 181 180 180 181 179 180 183 181 177 177 180 180 177 174 174 177 178 176
302 299 298 298 296 296 295 294 293 292 290 286 279 276 276 274 274 274 272 271 269 265 261 257 259 264 263 264 266 269 276 277 269 256 232 206 194 191 191 190 190 191 193 193 192 191 189 189 191 194 196 196 196 196 196 198 198 197 197 198 199 199 197 196 194 190 187 186 183 185 186 183 182 185 185 182 179 178 177 178 181 181 183 185 187
303 301 299 298 297 296 295 293 292 290 290 289 281 273 271 272 273 271 270 270 265 260 258 254 254 258 259 261 264 267 273 274 268 255 231 206 195 192 190 190 191 191 193 192 191 190 188 187 189 193 194 195 195 196 196 196 196 195 194 196 199 199 198 198 197 195 194 192 190 191 191 189 189 191 190 187 182 178 178 182 185 187 188 190 192
302 301 299 298 297 297 295 293 292 291 291 291 287 277 269 268 270 270 269 268 262 257 254 251 249 252 256 260 262 265 270 272 266 252 227 204 195 192 190 189 190 191 193 191 189 190 190 189 189 190 192 193 194 194 195 194 193 193 193 196 198 198 199 200 199 198 198 197 198 199 197 195 197 196 192 188 186 184 184 185 185 185 184 182 183
302 302 301 299 298 297 295 293 291 291 289 289 288 283 274 268 269 270 269 267 262 256 251 248 245 248 254 259 261 264 269 269 262 246 222 202 194 192 190 189 190 190 191 191 190 189 190 190 189 190 191 192 193 193 193 193 191 190 191 195 197 198 200 202 202 201 200 200 203 205 202 200 201 199 194 190 188 186 183 181 179 175 172 168 166
302 302 300 299 297 295 294 292 289 289 287 284 284 283 278 272 270 269 266 264 260 252 247 245 244 245 252 257 259 264 268 266 257 240 216 199 193 191 189 188 189 189 190 190 189 189 189 190 191 191 191 191 193 194 194 192 191 190 190 191 194 197 200 201 202 203 203 202 204 207 206 201 201 202 198 192 190 186 178 172 173 174 172 167 164
305 303 300 298 297 295 293 290 286 285 284 281 279 279 276 271 269 266 262 262 261 254 247 245 244 244 249 255 261 265 264 260 251 232 210 197 192 189 187 186 187 188 189 189 189 188 189 191 193 193 193 193 193 194 194 192 190 191 191 189 191 195 198 198 198 200 202 203 205 207 207 204 202 205 203 196 192 189 184 180 180 179 177 178 179
308 305 301 298 296 295 292 289 286 282 279 277 275 275 273 270 267 263 260 264 267 260 248 243 243 245 250 258 266 265 258 254 246 225 205 195 191 188 184 183 184 186 186 187 188 189 189 191 194 196 196 196 195 195 195 194 192 191 190 188 189 195 197 195 195 195 197 199 202 204 205 204 204 206 206 200 195 193 194 192 187 182 182 187 183
309 306 303 300 298 295 291 287 285 281 277 274 273 273 272 268 264 261 262 266 265 256 244 240 245 252 259 266 270 264 253 247 237 217 201 193 190 186 183 182 182 182 184 184 185 187 188 190 192 195 196 197 197 196 195 195 196 194 192 189 191 195 196 194 194 195 196 197 200 201 203 203 203 204 203 198 195 195 198 198 193 189 190 192 188
309 307 305 302 298 294 291 286 282 279 276 272 270 271 270 265 259 259 264 264 258 248 243 250 256 264 271 273 270 261 249 239 226 209 197 192 189 185 183 183 182 180 181 183 183 184 187 189 191 194 195 196 197 196 195 196 198 196 194 196 198 198 195 194 195 197 197 198 199 199 200 198 197 199 198 195 194 197 199 200 199 198 197 196 194
312 310 307 303 298 294 293 289 283 278 275 272 269 268 265 260 256 258 263 265 261 253 256 264 267 272 276 274 267 256 244 233 219 204 196 191 188 186 185 184 182 180 178 181 184 185 186 188 190 192 194 195 198 198 196 197 198 198 198 201 202 201 198 196 195 195 197 199 198 196 195 192 191 192 193 193 194 198 200 201 201 204 205 203 200
312 310 306 302 297 295 297 296 292 284 276 271 268 265 261 258 258 260 263 267 269 264 262 267 268 270 274 273 261 247 237 227 214 203 196 192 190 189 188 185 183 182 180 181 184 185 186 187 190 192 192 194 198 199 198 198 198 200 201 202 202 202 200 196 193 193 196 198 197 195 195 192 189 189 190 192 194 198 202 203 203 206 208 206 206
312 309 305 300 300 306 309 308 302 293 281 269 265 265 264 263 264 263 262 263 264 260 260 265 267 265 269 269 253 236 228 221 211 202 196 192 191 190 188 186 185 185 184 184 184 183 184 186 189 191 192 194 196 198 199 199 200 201 202 200 200 202 199 195 193 193 195 196 196 196 195 194 192 191 192 194 196 200 203 204 204 206 206 204 206
313 310 306 304 308 314 316 313 308 302 292 277 268 268 267 265 265 264 261 259 258 257 258 261 262 264 266 262 247 227 218 215 210 203 197 192 191 190 187 187 188 187 186 185 185 186 186 186 189 191 192 194 195 196 198 200 201 203 202 200 198 197 197 197 197 194 194 197 197 197 196 195 195 196 196 197 198 199 199 198 200 203 204 203 206
313 311 309 310 314 319 319 318 318 315 306 292 280 274 267 259 260 264 263 260 259 258 259 257 256 259 261 256 245 226 212 207 207 205 199 193 191 189 187 187 189 189 188 187 186 186 186 185 187 190 191 192 193 193 196 199 201 203 203 199 197 196 195 196 196 195 196 198 198 198 199 198 197 198 197 196 195 194 191 190 193 197 199 200 202
315 312 310 313 319 324 324 324 324 322 319 313 302 288 273 259 254 258 260 260 260 258 255 253 254 253 247 244 237 222 207 201 200 202 199 194 191 190 188 187 187 186 186 186 185 185 184 185 188 189 190 191 193 194 196 197 197 199 199 198 199 200 199 198 197 197 197 198 198 200 200 198 198 197 196 194 192 191 190 189 190 192 194 194 195
317 312 311 318 325 329 329 327 326 326 325 322 316 305 289 273 262 259 257 255 252 253 251 246 247 246 240 229 218 206 203 201 198 197 197 194 191 190 189 187 185 183 182 182 181 181 181 182 183 185 186 187 191 194 194 192 192 195 196 198 202 204 203 201 200 200 199 198 198 198 196 196 196 196 194 193 192 191 191 190 190 190 189 188 189
319 316 320 327 331 333 333 330 328 326 324 322 320 314 305 293 278 267 263 259 252 248 249 247 244 244 242 234 215 195 193 203 203 201 199 196 193 191 191 190 187 184 181 177 174 172 172 172 174 178 182 185 187 190 191 191 192 194 196 198 202 204 203 201 201 202 200 198 196 194 192 192 193 194 194 195 194 193 191 190 190 188 187 188 191
323 325 329 333 337 338 336 333 331 328 324 322 321 318 316 312 300 280 268 264 258 250 246 247 247 246 245 242 236 226 214 207 206 205 202 200 199 196 194 192 190 185 179 173 169 166 167 171 176 180 183 185 187 189 190 190 192 194 196 199 201 202 202 202 201 200 198 196 195 194 192 191 192 192 193 195 195 193 191 191 190 187 187 191 194
327 329 332 336 339 340 338 335 332 328 325 324 322 319 320 323 324 317 294 271 262 256 250 246 247 247 248 252 252 244 229 214 207 205 204 201 199 198 195 192 188 184 178 173 169 168 171 175 180 184 185 187 189 190 190 191 193 194 195 197 200 201 202 202 200 198 196 196 195 194 192 192 192 191 193 195 195 193 191 191 191 190 192 195 195
329 328 332 338 342 342 340 338 334 331 330 329 327 327 328 327 331 339 338 314 275 261 255 251 250 248 248 254 260 251 233 220 212 208 206 203 199 198 196 191 187 184 179 173 170 174 179 181 183 185 187 190 192 191 190 191 194 194 193 194 197 200 202 202 199 196 195 195 194 192 192 194 194 192 192 194 194 193 192 191 193 194 196 197 197
332 328 336 344 344 344 344 341 338 336 336 335 333 335 340 341 334 339 351 2 7 6 4 359 330 278 252 249 253 248 233 221 215 211 209 207 203 200 197 194 189 183 178 175 176 181 183 185 187 188 190 194 194 191 191 193 194 195 195 196 197 199 201 200 197 194 195 197 196 194 194 195 195 194 192 192 192 193 193 194 196 196 196 197 198
340 338 346 350 348 347 346 343 342 342 342 340 341 343 346 350 354 351 353 7 19 27 32 33 31 25 8 304 264 243 229 221 217 212 211 210 207 202 199 195 190 184 181 181 184 185 186 190 193 192 194 196 194 191 193 196 196 196 198 200 201 200 198 196 193 193 196 198 198 198 197 196 195 193 191 190 191 192 194 197 197 196 197 198 198
350 348 351 354 354 352 348 344 345 350 349 345 345 351 353 354 1 6 7 7 10 10 12 18 25 32 40 40 31 271 219 213 213 210 209 212 210 202 192 186 183 184 186 189 190 189 189 192 195 196 196 196 194 194 195 196 196 197 199 201 201 199 196 194 194 196 198 197 198 199 198 196 196 194 192 191 190 191 195 200 200 198 198 198 196
356 354 352 354 356 354 350 347 350 355 356 352 351 356 1 4 7 10 11 14 16 13 4 7 18 32 43 47 46 50 66 77 75 77 110 194 203 195 185 181 184 187 190 195 196 194 195 197 198 198 197 195 194 195 196 195 196 198 198 197 196 196 195 196 197 198 198 197 199 199 197 196 196 195 193 193 195 195 197 199 200 201 200 198 196
359 355 353 355 356 356 355 355 356 359 1 360 358 1 5 9 13 15 16 17 16 14 12 14 20 28 34 34 37 46 57 66 69 66 63 69 85 93 96 159 195 197 199 201 200 196 196 198 197 196 195 194 193 194 194 195 196 197 197 196 195 195 196 197 198 198 198 199 200 199 197 198 198 196 195 196 198 199 199 198 198 200 201 200 198
3 358 356 358 359 0 1 1 1 2 4 3 3 5 9 12 15 18 19 20 19 16 16 21 26 27 20 14 23 41 54 57 57 54 52 53 54 50 46 45 45 42 35 207 204 201 198 196 196 195 193 191 191 191 192 193 194 194 194 195 196 197 198 198 199 199 199 200 201 200 200 200 200 199 199 201 200 199 199 197 197 198 199 200 199
7 2 0 3 4 4 5 6 5 5 8 7 7 10 13 15 17 18 17 19 21 18 15 18 28 32 22 11 19 40 51 48 41 37 38 42 45 46 46 45 42 39 39 41 48 64 94 138 174 187 190 191 191 191 190 191 192 194 194 195 196 197 198 197 198 199 200 202 203 202 201 201 201 201 202 204 204 201 198 197 197 196 196 197 200
8 2 359 3 5 1 2 9 10 9 11 10 9 13 17 18 19 19 19 21 24 22 20 19 24 31 31 24 25 40 49 44 34 32 35 38 42 44 44 42 40 41 43 45 48 52 56 61 70 88 122 164 183 190 192 192 192 194 196 197 197 198 198 198 199 200 200 202 203 203 202 202 202 201 203 206 207 205 201 199 199 198 197 198 200
12 4 358 2 5 1 2 9 10 9 11 12 13 15 17 17 19 22 24 25 24 23 24 23 24 30 34 33 35 44 50 45 38 38 38 38 40 42 42 41 40 41 43 43 45 51 55 58 59 60 64 75 108 160 184 191 193 194 196 198 199 199 200 201 202 203 203 202 203 203 203 203 201 202 204 207 208 207 204 202 201 200 200 200 199
15 10 1 359 2 3 4 5 5 7 12 16 16 16 15 16 21 25 26 27 26 24 23 23 25 31 34 32 36 44 48 44 41 41 40 39 39 41 41 41 40 40 41 41 42 47 52 55 56 56 55 57 62 75 107 155 185 194 195 197 198 199 199 201 202 203 203 204 204 204 204 203 202 204 207 208 208 206 205 203 202 200 199 198 196
17 17 11 6 6 8 8 5 3 7 14 17 16 16 17 20 24 26 26 26 25 25 24 19 21 28 32 33 36 42 44 42 41 42 41 40 40 41 42 42 42 43 45 45 45 48 51 53 54 54 54 55 56 59 65 74 99 158 183 191 195 196 197 199 200 200 200 201 203 205 204 202 202 204 205 206 206 206 206 204 201 199 198 194 192
19 20 19 18 18 19 19 16 12 12 15 17 18 19 20 22 23 24 25 25 24 24 24 19 17 22 29 33 37 39 40 39 40 41 41 41 42 43 44 45 47 48 49 49 50 52 53 53 53 53 54 54 55 57 60 63 69 81 104 133 151 160 173 185 192 196 196 195 195 197 196 194 195 197 198 199 200 201 202 202 201 200 197 192 188
21 19 20 21 22 23 22 22 21 21 19 17 16 19 21 23 23 22 22 22 22 22 21 20 19 22 26 30 34 36 36 37 38 39 39 40 41 43 45 47 48 49 50 50 52 54 54 53 53 54 53 52 53 56 59 59 62 68 76 84 90 91 97 123 159 181 189 189 188 188 187 186 186 186 186 188 190 191 194 196 196 196 195 191 188
22 22 22 22 23 23 23 23 24 25 23 18 14 16 21 24 25 25 23 21 22 23 22 23 25 26 25 27 31 33 34 36 37 38 38 38 39 41 43 46 48 50 50 52 54 54 53 52 53 54 54 52 51 54 57 58 59 63 67 70 73 75 80 92 117 147 168 178 180 178 176 176 178 179 178 179 182 185 189 190 190 191 191 191 190
24 24 25 24 22 23 24 24 25 26 25 22 18 18 22 25 27 28 28 25 25 26 27 28 29 29 27 28 31 33 34 36 37 37 37 38 40 41 43 45 48 49 50 51 52 52 52 51 51 53 54 53 51 51 53 55 57 59 60 62 65 69 76 86 98 112 130 149 161 164 162 160 160 162 165 167 170 175 179 181 182 184 184 184 184
25 25 26 26 24 23 23 24 24 25 25 25 23 22 23 25 26 28 30 29 29 29 30 30 31 31 31 32 33 34 35 36 37 36 37 39 41 42 43 45 46 48 49 50 51 50 51 52 52 51 52 52 51 49 48 50 53 54 55 57 61 68 76 84 91 98 109 122 133 142 146 143 140 140 143 145 146 148 153 157 160 163 163 162 163
25 26 27 26 24 24 23 23 24 24 24 24 25 24 25 26 25 26 28 29 30 30 30 30 31 31 31 31 32 33 34 35 35 35 36 39 40 41 43 44 46 47 48 49 49 49 50 52 53 52 51 51 52 51 49 48 49 52 53 55 60 67 74 81 86 93 101 109 115 122 127 127 126 125 126 127 128 127 128 132 136 140 141 141 144
25 26 27 26 25 25 24 23 24 25 24 25 25 24 25 26 25 25 26 27 27 28 29 29 30 30 30 29 30 31 32 33 33 33 35 37 39 40 42 43 45 46 46 47 48 49 51 52 54 55 54 54 54 54 52 49 47 49 52 55 59 63 68 74 81 89 97 101 104 108 111 111 110 110 110 112 115 116 115 117 119 121 124 127 130
26 26 26 25 25 26 25 24 23 22 22 23 24 23 23 24 24 24 25 25 24 25 26 27 27 28 28 29 30 31 32 32 32 32 34 35 36 38 40 41 42 43 44 45 46 48 50 52 53 55 56 56 55 56 56 52 48 48 51 55 58 60 63 67 72 79 88 95 99 101 102 101 99 97 97 100 103 105 107 109 110 110 111 115 120